Regional Weather Roundup
Issued by NWS

Home | Current Version | Previous Version | Text Only | Print | Product List | Glossary Off
Versions: 1 2 3 4 5 6 7 8 9 10 11 12 13 14 15 16 17 18 19 20 21 22 23 24 25 26 27 28 29 30 31 32 33 34 35 36 37 38 39 40 41 42 43 44 45 46 47 48 49 50

476
ASUS44 KJAN 301810
RWRMS

MISSISSIPPI HOURLY WEATHER ROUNDUP
NATIONAL WEATHER SERVICE JACKSON MS
100 PM CDT WED JUL 30 2014

NOTE: "FAIR: INDICATES FEW OR NO CLOUDS BELOW 12,000 FEET WITH NO
SIGNIFICANT WEATHER AND/OR OBSTRUCTIONS TO VISIBILITY.

MSZ001>002-007>008-010>013-018>021-025>028-034>036-301900-
NORTHWEST MISSISSIPPI

CITY           SKY/WX    TMP DP  RH WIND       PRES   REMARKS
CLARKSDALE     FAIR      79  59  50 SE6       30.12S
CLEVELAND      FAIR      80  60  50 SW3       30.10F
GREENWOOD      FAIR      81  56  42 VRB3      30.10F
6HR MIN TEMP:  60; 6HR MAX TEMP:  81;

GREENVILLE     FAIR      80  59  48 E3        30.10F
6HR MIN TEMP:  62; 6HR MAX TEMP:  82;

GRENADA        FAIR      79  54  41 E5        30.11F
OLIVE BRANCH   MOSUNNY   81  57  44 S7        30.11F
OXFORD           N/A     77  55  47 E7        30.13F
TUNICA         FAIR      81  57  44 S7        30.11F
$$

MSZ003>006-009-014>017-022>024-029>033-037>039-301900-
NORTHEAST MISSISSIPPI

CITY           SKY/WX    TMP DP  RH WIND       PRES   REMARKS
BELMONT        FAIR      79  60  53 N3        30.11F
COLUMBUS AFB   FAIR      80  55  41 VRB5      30.10F
6HR MIN TEMP:  60; 6HR MAX TEMP:  81; 6HR PCP: TRACE;

CORINTH        FAIR      79  54  41 CALM      30.11F
GOLDN TRIANGLE MOSUNNY   81  57  44 N7        30.11F
STARKVILLE     FAIR      79  54  41 N3        30.10S
TUPELO         PTSUNNY   81  54  39 NE8       30.11F
6HR MIN TEMP:  62; 6HR MAX TEMP:  81;

$$

MSZ040-058-301900-
CENTRAL MISSISSIPPI

CITY           SKY/WX    TMP DP  RH WIND       PRES   REMARKS
JACKSON INTL   FAIR      83  56  39 VRB5      30.09F
6HR MIN TEMP:  62; 6HR MAX TEMP:  83;

JACKSON HAWKNS FAIR      81  54  39 N6        30.10F
6HR MIN TEMP:  63; 6HR MAX TEMP:  82;

MERIDIAN KEY   FAIR      83  53  35 NW8       30.07F
6HR MIN TEMP:  57; 6HR MAX TEMP:  83;

MERIDIAN NAS   FAIR      82  52  35 VRB7      30.08F
6HR MIN TEMP:  57; 6HR MAX TEMP:  83;

RAYMOND        FAIR      81  75  83 NW8       30.09F
VICKSBURG      FAIR      83  58  42 E6        30.09F
6HR MIN TEMP:  61; 6HR MAX TEMP:  83;

$$

MSZ059>079-301900-
SOUTH MISSISSIPPI

CITY           SKY/WX    TMP DP  RH WIND       PRES   REMARKS
BROOKHAVEN     FAIR      79  57  47 NE6       30.10F
COLUMBIA       FAIR      82  57  42 VRB5      30.06F
HATTIESBURG    FAIR      82  55  39 NE5       30.07F
6HR MIN TEMP:  63; 6HR MAX TEMP:  83;

MCCOMB         FAIR      81  56  42 N5        30.08F
6HR MIN TEMP:  66; 6HR MAX TEMP:  82;

NATCHEZ        FAIR      81  61  50 W7        30.10F
6HR MIN TEMP:  63; 6HR MAX TEMP:  81;

PINE BELT      FAIR      82  54  36 NE6       30.09F
6HR MIN TEMP:  63; 6HR MAX TEMP:  82;

$$

MSZ080>082-301900-
COASTAL MISSISSIPPI

CITY           SKY/WX    TMP DP  RH WIND       PRES   REMARKS
BAY ST LOUIS   MOSUNNY  N/A N/A N/A N10       30.05F
BILOXI         FAIR      85  59  42 N5        30.04F
6HR MIN TEMP:  69; 6HR MAX TEMP:  85;

PASCAGOULA     FAIR      85  59  41 N6        30.04F
6HR MIN TEMP:  68; 6HR MAX TEMP:  85;

GULFPORT       FAIR      87  58  37 NW8       30.03F
6HR MIN TEMP:  72; 6HR MAX TEMP:  88;

$$



USA.gov is the U.S. government's official web portal to all federal, state and local government web resources and services.